Weather History for LTCC - October, 2013

Change the Weather History Date:

Saturday, October 12, 2013

  Actual Average Record
Temperature  
Mean Temperature 66 °F -  
Max Temperature 84 °F 71 °F 91 °F (2002)
Min Temperature 49 °F 47 °F 46 °F (1998)
Cooling Degree Days 2    
Growing Degree Days 16 (Base 50)    
Moisture  
Dew Point 21 °F    
Average Humidity 18    
Maximum Humidity 30    
Minimum Humidity 4    
Precipitation  
Precipitation 0.00 in 0.05 in - ()
Sea Level Pressure  
Sea Level Pressure 29.96 in    
Wind  
Wind Speed 5 mph ()    
Max Wind Speed 14 mph    
Max Gust Speed -    
Visibility 12.0 miles    
Events      
Averages and records for this station are not official NWS values.
T = Trace of Precipitation, MM = Missing Value Source: Averaged Metar Reports

Daily Weather History Graph

Daily Weather History Graph

Search for Another Location

Airport or City:

Trip Planner

Search our weather history database for the weather conditions in past years. The results will help you decide how hot, cold, wet, or windy it might be!

Date:

Astronomy

Oct. 12, 2013 Rise Set
Actual Time 6:24 AM EEST 5:46 PM EEST
Civil Twilight 5:58 AM EEST 6:12 PM EEST
Nautical Twilight 5:27 AM EEST 6:42 PM EEST
Astronomical Twilight 4:57 AM EEST 7:13 PM EEST
Moon 1:33 PM EEST (10/12) No Moon Set
Length of Visible Light 12h 14m
Length of Day
11h 21m
First Quarter, 55% of the Moon is Illuminated
Oct 12
First Quarter
Oct 19
Full
Oct 27
Last Quarter
Nov 3
New
Nov 10
First Quarter

Hourly Weather History & Observations

Time (EEST) Temp. Dew Point Humidity Pressure Visibility Wind Dir Wind Speed Gust Speed Precip Events Conditions
12:20 AM 59.0 °F 19.4 °F 22% 30.04 in - West 5.8 mph - N/A   Clear
12:50 AM 62.6 °F 19.4 °F 19% 30.04 in - West 6.9 mph - N/A   Clear
1:20 AM 57.2 °F 19.4 °F 23% 30.04 in - West 4.6 mph - N/A   Clear
1:50 AM 57.2 °F 19.4 °F 23% 30.04 in - West 3.5 mph - N/A   Clear
2:20 AM 55.4 °F 19.4 °F 25% 30.04 in - West 5.8 mph - N/A   Clear
2:50 AM 55.4 °F 19.4 °F 25% 30.01 in - NW 3.5 mph - N/A   Clear
3:00 AM 55 °F 19 °F 14% 29.94 in 12 mi NW 3.5 mph - -  
3:20 AM 53.6 °F 19.4 °F 26% 30.01 in - WNW 6.9 mph - N/A   Clear
3:50 AM 55.4 °F 19.4 °F 25% 30.04 in - WNW 2.3 mph - N/A   Clear
4:20 AM 53.6 °F 19.4 °F 26% 30.04 in - Variable 2.3 mph - N/A   Clear
4:50 AM 51.8 °F 19.4 °F 28% 30.01 in - WNW 3.5 mph - N/A   Clear
5:20 AM 50.0 °F 17.6 °F 28% 30.04 in - WNW 4.6 mph - N/A   Clear
5:50 AM 50.0 °F 19.4 °F 30% 30.04 in - NW 3.5 mph - N/A   Clear
6:20 AM 50.0 °F 19.4 °F 30% 30.04 in - West 2.3 mph - N/A   Clear
6:50 AM 55.4 °F 19.4 °F 25% 30.04 in - NNW 2.3 mph - N/A   Clear
7:20 AM 55.4 °F 23.0 °F 29% 30.04 in - Calm Calm - N/A   Clear
7:50 AM 62.6 °F 24.8 °F 24% 30.04 in - Calm Calm - N/A   Clear
8:20 AM 66.2 °F 24.8 °F 21% 30.04 in - Calm Calm - N/A   Clear
8:50 AM 71.6 °F 26.6 °F 19% 30.04 in - Variable 3.5 mph - N/A   Clear
9:00 AM 71 °F 26 °F 10% 29.96 in 12 mi North 3.5 mph - -  
9:20 AM 73.4 °F 26.6 °F 18% 30.04 in - North 4.6 mph - N/A   Clear
9:50 AM 75.2 °F 24.8 °F 15% 30.04 in - North 8.1 mph - N/A   Clear
10:20 AM 77.0 °F 24.8 °F 14% 30.01 in - North 6.9 mph - N/A   Clear
10:50 AM 78.8 °F 24.8 °F 14% 30.01 in - NNE 6.9 mph - N/A   Clear
11:20 AM 78.8 °F 24.8 °F 14% 30.01 in - NNE 5.8 mph - N/A   Clear
11:50 AM 80.6 °F 21.2 °F 11% 29.98 in - Variable 4.6 mph - N/A   Clear
12:20 PM 82.4 °F 23.0 °F 11% 29.98 in - Variable 3.5 mph - N/A   Clear
12:50 PM 82.4 °F 23.0 °F 11% 29.98 in - NW 4.6 mph - N/A   Clear
1:20 PM 84.2 °F 21.2 °F 10% 29.95 in - Variable 4.6 mph - N/A   Clear
1:50 PM 84.2 °F 21.2 °F 10% 29.95 in - Variable 5.8 mph - N/A   Clear
2:20 PM 84.2 °F 19.4 °F 9% 29.92 in - NW 8.1 mph - N/A   Clear
2:50 PM 84.2 °F 19.4 °F 9% 29.92 in - North 5.8 mph - N/A   Clear
3:00 PM 84 °F 18 °F 4% 29.84 in 12 mi North 5.8 mph - -  
3:20 PM 84.2 °F 19.4 °F 9% 29.92 in - NNW 6.9 mph - N/A   Clear
3:50 PM 84.2 °F 17.6 °F 8% 29.92 in - North 9.2 mph - N/A   Clear
4:20 PM 84.2 °F 15.8 °F 8% 29.89 in - NW 6.9 mph - N/A   Clear
4:50 PM 82.4 °F 15.8 °F 8% 29.89 in - NNW 9.2 mph - N/A   Clear
5:20 PM 80.6 °F 19.4 °F 10% 29.89 in - North 5.8 mph - N/A   Clear
5:50 PM 75.2 °F 17.6 °F 11% 29.89 in - NNW 6.9 mph - N/A   Clear
6:20 PM 71.6 °F 21.2 °F 15% 29.89 in - NW 11.5 mph - N/A   Clear
6:50 PM 71.6 °F 23.0 °F 16% 29.89 in - NW 10.4 mph - N/A   Clear
7:20 PM 71.6 °F 23.0 °F 16% 29.89 in - NNW 10.4 mph - N/A   Clear
7:50 PM 69.8 °F 23.0 °F 17% 29.89 in - NW 9.2 mph - N/A   Clear
8:20 PM 69.8 °F 24.8 °F 18% 29.89 in - North 6.9 mph - N/A   Clear
8:50 PM 66.2 °F 24.8 °F 21% 29.89 in - NNW 12.7 mph - N/A   Clear
9:00 PM 66 °F 23 °F 10% 29.82 in 12 mi NNW 12.7 mph - -  
9:20 PM 68.0 °F 23.0 °F 18% 29.89 in - NNW 13.8 mph - N/A   Clear
9:50 PM 66.2 °F 23.0 °F 19% 29.89 in - NNW 12.7 mph - N/A   Clear
10:20 PM 62.6 °F 23.0 °F 22% 29.89 in - NNW 10.4 mph - N/A   Clear
10:50 PM 60.8 °F 23.0 °F 23% 29.89 in - NNW 8.1 mph - N/A   Clear
11:20 PM 60.8 °F 21.2 °F 22% 29.89 in - West 3.5 mph - N/A   Clear
11:50 PM 62.6 °F 21.2 °F 20% 29.89 in - West 4.6 mph - N/A   Clear